Voltar ao catálogo

COSMOS 1753

AtivoMilitarLEO
NORAD 16763·PAYLOAD·🇷🇺 Russia

Lançado Jun 6, 1986 de Plesetsk Cosmodrome

Loading…

Próximas Passagens (próximas 24 horas)

TLE

AtualizadoSource: Space-Track

Época: Sep 14, 2026, 22:55 UTC

1 16763U 86042F   26257.95532288 -.00000027  00000-0 -72612-4 0  9990
2 16763  74.0147 242.5852 0009177 102.2048 285.5633 12.48906523836297

Acompanhe COSMOS 1753 em tempo real com AllMySat

Download on the App Store